Regional Weather Roundup
Issued by NWS

Home | Current Version | Previous Version | Graphics & Text | Print | Product List | Glossary Off
Versions: 1 2 3 4 5 6 7 8 9 10 11 12 13 14 15 16 17 18 19 20 21 22 23 24 25 26 27 28 29 30 31 32 33 34 35 36 37 38 39 40 41 42 43 44 45 46 47 48 49 50

000
ASUS43 KMKX 261500
RWRWI

WISCONSIN REGIONAL WEATHER ROUNDUP
NATIONAL WEATHER SERVICE MILWAUKEE/SULLIVAN WI
900 AM CST SUN FEB 26 2017

NOTE: "FAIR" INDICATES FEW OR NO CLOUDS BELOW 12,000 FEET WITH NO
SIGNIFICANT WEATHER AND/OR OBSTRUCTIONS TO VISIBILITY.

WIZ001-002-006>008-014>016-023>028-261600-
NORTHWEST WISCONSIN

CITY           SKY/WX    TMP DP  RH WIND       PRES   REMARKS
SUPERIOR ARPT  CLOUDY    26  23  85 SW5       29.66F WCI  21
ASHLAND        CLOUDY    26  20  77 SW9       29.67F WCI  17
HAYWARD        CLOUDY    25  19  78 S10       29.68F WCI  15
SIREN          CLOUDY    27  20  75 SW10      29.70S WCI  17
CUMBERLAND     CLOUDY    27  19  74 SW13      29.71R WCI  16
RICE LAKE      CLOUDY    26  20  77 SW9       29.73S WCI  17
CHETEK         CLOUDY    26  19  75 SW6       29.72S WCI  19
LADYSMITH      CLOUDY    25  19  77 SW9       29.73R WCI  15
EAU CLAIRE     NOT AVBL
MENOMONIE      SUNNY     26  18  72 SW8       29.75R WCI  17
NEW RICHMOND   MOSUNNY   25  19  77 SW8       29.74R WCI  16
OSCEOLA        CLOUDY    28  21  76 SW9       29.77R WCI  19
$$

WIZ003>005-009-010-017-018-261600-
NORTH CENTRAL WISCONSIN

CITY           SKY/WX    TMP DP  RH WIND       PRES   REMARKS
MANITOWISH WTR FLURRIES  21  19  91 SW9       29.66R WCI  11
ARBOR VITAE    CLOUDY    22  19  87 SW3         N/A
WOODRUFF       CLOUDY    22  19  87 SW3         N/A
RHINELANDER    LGT SNOW  22  18  85 SW13      29.68F FOG     WCI  10
EAGLE RIVER    LGT SNOW  21  16  81 SW7       29.67S WCI  13
LAND O LAKES   FLURRIES  22  18  85 SW9       29.67S WCI  12
PHILLIPS       CLOUDY    23  18  83 SW9G16    29.68S WCI  13
TOMAHAWK       CLOUDY    23  17  80 CALM      29.70S
MEDFORD        CLOUDY    23  16  75 SW10      29.70S WCI  12
MERRILL        NOT AVBL
$$

WIZ029-030-035-036-043>047-261600-
CENTRAL WISCONSIN

CITY           SKY/WX    TMP DP  RH WIND       PRES   REMARKS
WAUSAU         MOSUNNY   25  17  72 S15G22    29.72F WCI  13
MOSINEE        PTSUNNY   25  19  80 S14G20    29.75F WCI  13
MARSHFIELD     SUNNY     24  16  71 SW13      29.72F WCI  12
STEVENS POINT  CLOUDY    23  17  77 S8        29.77F WCI  14
WAUPACA        CLOUDY    28  19  69 S8        29.81F WCI  20
WAUTOMA        PTSUNNY   28  20  71 S9        29.81F WCI  19
WISC RAPIDS    SUNNY     27  19  72 SW15G22   29.78F WCI  15
CAMP DOUGLAS   NOT AVBL
$$

WIZ011>013-019>022-031-037>040-048>050-261600-
NORTHEAST WISCONSIN

CITY           SKY/WX    TMP DP  RH WIND       PRES   REMARKS
ANTIGO         CLOUDY    22  18  82 SW14      29.72F WCI  10
SHAWANO        CLOUDY    29  20  68 S6        29.79F WCI  23
OCONTO         CLOUDY    26  18  72 S8        29.82S WCI  18
STURGEON BAY   CLOUDY    27  19  72 S15       29.81F WCI  15
GREEN BAY      CLOUDY    29  20  69 S13G22    29.82F WCI  19
MANITOWOC      NOT AVBL
APPLETON       CLOUDY    27  18  69 S15       29.80F WCI  15
CLINTONVILLE   CLOUDY    27  19  74 S10       29.80F WCI  17
OSHKOSH        CLOUDY    27  19  72 S16       29.82F WCI  15
$$

WIZ032>034-041-042-053>061-261600-
SOUTHWEST WISCONSIN

CITY           SKY/WX    TMP DP  RH WIND       PRES   REMARKS
LA CROSSE      PTSUNNY   32  21  64 S5        29.81R WCI  27
SPARTA         SUNNY     30  20  64 SW5       29.80F WCI  25
VIROQUA        SUNNY     29  20  69 SW13G20   29.79S WCI  19
BOSCOBEL       SUNNY     32  19  58 SW12      29.86R WCI  23
PRAIRIE DU CHI CLOUDY    32  19  58 SW10      29.85R WCI  24
PLATTEVILLE    SUNNY     32  23  70 SW16      29.87R WCI  21
$$

WIZ056-057-062-063-064-067-068-261600-
SOUTH CENTRAL WISCONSIN

CITY           SKY/WX    TMP DP  RH WIND       PRES   REMARKS
REEDSBURG      MOSUNNY   30  20  67 SW7G18    29.82S WCI  23
BARABOO/DELLS  PTSUNNY   29  20  69 SW12G17   29.81S WCI  19
LONE ROCK      NOT AVBL
MINERAL POINT  MOSUNNY   32  25  74 SW7       29.84S WCI  26
MADISON        PTSUNNY   30  19  63 S13G18    29.85F WCI  20
MIDDLETON      MOSUNNY   31  21  68 SW7       29.85S WCI  24
WATERTOWN      CLOUDY    29  20  68 S13G21    29.86F WCI  19
MONROE         SUNNY     30  21  69 S22G29    29.86S WCI  17
JANESVILLE     PTSUNNY   32  19  59 S15G21    29.90S WCI  22
$$

WIZ051-052-058>065-066-070>072-261600-
SOUTHEAST WISCONSIN

CITY           SKY/WX    TMP DP  RH WIND       PRES   REMARKS
MILWAUKEE      CLOUDY    32  18  56 SW16G24   29.91F WCI  21
WAUKESHA       CLOUDY    28  18  64 S15       29.90F WCI  17
MILWAUKEE/TIMM PTSUNNY   28  16  59 S15       29.89F WCI  17
RACINE         CLOUDY    31  17  56 S14G22    29.94F WCI  21
KENOSHA        CLOUDY    32  17  54 SW16G24   29.94S WCI  21
FOND DU LAC    CLOUDY    29  18  63 S14G22    29.84S WCI  18
SHEBOYGAN      CLOUDY    27  19  72 S13       29.86F WCI  16
WEST BEND      CLOUDY    28  21  74 S5        29.86F WCI  23
JUNEAU         CLOUDY    27  19  72 S9        29.87S WCI  18
$$

LSZ147-162-261600-
LAKE SUPERIOR

STATION/POSITION TIME  TEMP    WIND        PRES    WAVE
                       AIR SEA DIR/SP/G            HT/PER
                 (UTC) (F)     (DEG/KT/KT) (MB)    (FT/S)
DEVILS ISLAND    1400   27     220/ 18/ 22 1005.0R
PORT WING        1440   26     200/  8/ 12 1004.7F
SAXON HARBOR     1430   26     200/  6/ 10 1005.4R
$$

LMZ867-665-643>646-261600-
LAKE MICHIGAN

STATION/POSITION TIME  TEMP    WIND        PRES    WAVE
                       AIR SEA DIR/SP/G            HT/PER
                 (UTC) (F)     (DEG/KT/KT) (MB)    (FT/S)
NORTHPORT PIER   1440   27      CALM  /  2 1009.5F
SISTER BAY       1405   27        CALM       N/A
KEWAUNEE LAKESHO 1430   28     210/ 12/ 18 1010.3F
SHEBOYGAN LAKESH 1400   30     190/ 20/ 24 1012.7F
PORT WASHINGTON  1440   31     200/ 11/ 19 1012.9F
MILWAUKEE LAKESH 1430   30     200/ 13/ 15   N/A
KENOSHA   LAKESH 1400   29     200/ 11/ 16 1014.2
$$

TC  - TEMPERATURE IN CELSIUS
VSB - VISIBILITY IN STATUTE MILES
WCI - WIND CHILL INDEX
HX  - HEAT INDEX





USA.gov is the U.S. government's official web portal to all federal, state and local government web resources and services.